User: anonymous   Login
Location: Unspecified
(44.0704°N, 88.6889°W)
Time: 06:24:25
(UTC+01:00)
Language:

ISS - Orbit

View from above orbital plane
View from above orbital plane
View from above satellite
View from above satellite

Ground track
Ground track

The orbit data is extracted from the following two-line orbital elements,

1 25544U 98067A   19324.65603284  .00016717  00000-0  10270-3 0  9088
2 25544  51.6413 305.5275 0006678 305.3547  54.6978 15.50006780 39523
Epoch (UTC): 20 November 2019 15:44:41
Eccentricity: 0.0006678
inclination: 51.6413°
perigee height: 412 km
apogee height: 421 km
right ascension of ascending node: 305.5275°
argument of perigee: 305.3547°
revolutions per day: 15.50006780
mean anomaly at epoch: 54.6978°
orbit number at epoch: 3952

The dashed part of the orbit path shows where the satellite is in the earth's shadow,  

DLR